[sarex] 2 Line ISS Keps 2-12

Dave Larsen PhD doc at volcano.net
Thu Feb 12 05:52:52 PST 2009


ISS
1 25544U 98067A   09043.09503594  .00003682  00000-0  33656-4 0  2541
2 25544 051.6410 227.5020 0008680 017.5983 081.6728 15.70856935586271


More information about the SAREX mailing list